Stations météo

réclame
Mon MeteoGroup
Paris/Charles De Gaulle, France (7157): Température de l'air & dewpoint: 22.02.2020 18:00:00 - 28.02.2020 18:00:00 (CET)Paris/Charles De Gaulle, France (7157): Température de l'air 5cm: 22.02.2020 18:00:00 - 28.02.2020 18:00:00 (CET)Paris/Charles De Gaulle, France (7157): Température de l'air -20cm & Température de l'air -100cm: 22.02.2020 18:00:00 - 28.02.2020 18:00:00 (CET)Paris/Charles De Gaulle, France (7157): Vitesse du vent & gusts: 22.02.2020 18:00:00 - 28.02.2020 18:00:00 (CET)Paris/Charles De Gaulle, France (7157): Direction du vent: 22.02.2020 18:00:00 - 28.02.2020 18:00:00 (CET)Paris/Charles De Gaulle, France (7157): reduced air pressure: 22.02.2020 18:00:00 - 28.02.2020 18:00:00 (CET)Paris/Charles De Gaulle, France (7157): visibility: 22.02.2020 18:00:00 - 28.02.2020 18:00:00 (CET)Paris/Charles De Gaulle, France (7157): Ensoleillement: 22.02.2020 18:00:00 - 28.02.2020 18:00:00 (CET)Paris/Charles De Gaulle, France (7157): Quantités de précipitations: 22.02.2020 18:00:00 - 28.02.2020 18:00:00 (CET)
Date & Time tt [°C] td [°C] tt 5cm [°C] tt -20cm [°C] tt -100cm [°C] ff [km/h] ff [knt] fx [km/h] fx [knt] dd ppp [hPa] vv [km] sd [min] rr [mm]
28.02.2020 18:00:00 7,4 5,4 6,1 5,9 8,6 28 15 50 27 S 1010,2 15 0 0,0
28.02.2020 17:00:00 6,9 4,7 6,1 5,9 8,6 27 14 45 24 S 1011,3 9 0 0,4
28.02.2020 16:00:00 7,0 3,8 6,1 5,8 8,6 27 14 49 26 S 1012,4 10 0 0,0
28.02.2020 15:00:00 6,9 1,6 5,2 5,7 8,6 31 17 56 30 S 1013,2 10 0 0,0
28.02.2020 14:00:00 6,4 1,9 5,6 5,6 8,7 24 13 48 26 S 1014,6 9 0 0,2
28.02.2020 13:00:00 6,9 -0,3 6,8 5,5 8,7 28 15 49 27 S 1015,9 25 0 0,0
28.02.2020 12:00:00 6,1 -0,4 5,7 5,4 8,7 27 14 48 26 S 1017,5 25 0 0,0
28.02.2020 11:00:00 4,7 0,1 4,4 5,5 8,7 22 12 44 24 S 1018,5 31 0 0,0
28.02.2020 10:00:00 3,9 0,4 2,7 5,5 8,7 22 12 44 24 S 1019,1 20 0 0,0
28.02.2020 09:00:00 2,1 0,0 1,0 5,6 8,7 15 8 27 14 S 1019,4 17 13 0,0
28.02.2020 08:00:00 1,1 -0,5 0,5 5,7 8,7 13 7 18 10 SSE 1019,4 20 1 0,0
28.02.2020 07:00:00 1,0 -0,5 0,1 5,8 8,7 11 6 16 8 SSE 1019,5 20 0 0,0
28.02.2020 06:00:00 1,3 -0,3 0,5 5,9 8,7 10 5 18 10 S 1019,7 20 0 0,0
28.02.2020 05:00:00 2,3 0,0 -0,2 6,0 8,7 15 8 22 12 SW 1019,5 20 0 0,0
28.02.2020 04:00:00 1,7 -0,2 0,6 6,1 8,7 9 5 13 7 SSW 1019,3 18 0 0,0
28.02.2020 03:00:00 2,2 -0,1 1,2 6,3 8,7 11 6 19 10 WSW 1019,3 18 0 0,0
28.02.2020 02:00:00 2,8 -0,3 1,6 6,4 8,7 14 7 18 10 WSW 1018,9 25 0 0,0
28.02.2020 01:00:00 3,5 -0,2 2,5 6,5 8,7 11 6 16 9 W 1018,6 24 0 0,0
28.02.2020 00:00:00 3,4 -0,1 2,5 6,6 8,7 14 7 18 10 WSW 1017,8 25 0 0,0
27.02.2020 23:00:00 3,6 -0,2 2,7 6,7 8,7 14 8 20 11 WSW 1017,0 30 0 0,0
27.02.2020 22:00:00 4,0 -0,2 3,1 6,7 8,7 13 7 19 11 WSW 1015,7 28 0 0,0
27.02.2020 21:00:00 4,2 -0,2 3,2 6,8 8,8 14 8 24 13 W 1014,2 30 0 0,0
27.02.2020 20:00:00 4,1 -0,3 3,4 6,9 8,8 15 8 35 19 W 1012,8 30 0 0,0
27.02.2020 19:00:00 4,9 -0,5 4,1 6,9 8,8 27 14 61 33 NW 1010,9 30 4 0,0
27.02.2020 18:00:00 5,8 0,7 5,7 6,8 8,8 38 20 74 40 NW 1008,1 30 24 0,0
27.02.2020 17:00:00 6,0 0,7 6,2 6,8 8,8 48 26 85 46 NW 1005,4 30 6 0,0
27.02.2020 16:00:00 6,0 2,6 6,1 6,6 8,8 51 28 82 45 NW 1002,4 15 0 0,0
27.02.2020 15:00:00 6,7 2,2 7,4 6,5 8,8 49 27 95 52 NW 998,7 30 12 0,0
27.02.2020 14:00:00 8,0 4,2 8,0 6,4 8,8 68 37 95 51 NW 993,9 30 7 0,4
27.02.2020 13:00:00 10,2 8,0 8,3 6,4 8,8 38 21 62 34 W 990,7 11 0 0,2
27.02.2020 12:00:00 8,3 7,7 5,9 6,4 8,8 26 14 44 24 SSW 990,7 12 0 0,6
27.02.2020 11:00:00 5,7 5,3 3,7 6,5 8,8 26 14 52 28 S 991,9 3,0 0 2,4
27.02.2020 10:00:00 3,7 3,1 2,6 6,6 8,8 26 14 45 25 S 993,7 2,0 0 2,2
27.02.2020 09:00:00 2,8 1,9 1,9 6,6 8,8 27 15 49 26 S 996,5 3,5 0 3,3
27.02.2020 08:00:00 2,8 1,6 2,3 6,8 8,8 31 17 54 29 SSE 999,0 7 0 3,4
27.02.2020 07:00:00 3,3 2,0 2,8 6,8 8,8 29 15 44 24 S 1002,0 8 0 1,4
27.02.2020 06:00:00 3,6 1,3 3,0 6,9 8,8 21 11 27 15 S 1004,2 20 0 0,0
27.02.2020 05:00:00 3,6 0,6 3,1 7,0 8,8 16 9 28 15 S 1006,1 25 0 0,0
27.02.2020 04:00:00 3,3 0,5 3,1 7,1 8,8 17 9 26 14 S 1008,0 25 0 0,0
27.02.2020 03:00:00 3,3 0,3 2,9 7,2 8,8 15 8 21 11 S 1009,6 25 0 0,0
27.02.2020 02:00:00 3,6 0,3 2,7 7,3 8,8 15 8 23 12 SSW 1010,9 25 0 0,0
27.02.2020 01:00:00 3,4 0,1 2,8 7,5 8,8 16 9 23 13 SW 1011,5 25 0 0,0
27.02.2020 00:00:00 3,5 0,4 2,7 7,6 8,8 15 8 23 13 SW 1012,0 25 0 0,0
26.02.2020 23:00:00 3,6 0,5 2,9 7,7 8,8 13 7 24 13 SW 1012,5 25 0 0,0
26.02.2020 22:00:00 4,3 0,1 3,6 7,8 8,8 16 9 49 26 WSW 1012,3 30 0 0,0
26.02.2020 21:00:00 5,1 0,1 4,1 7,8 8,8 18 10 31 17 W 1012,1 30 0 0,0
26.02.2020 20:00:00 4,8 -0,4 4,1 7,9 8,8 15 8 29 15 W 1012,2 30 0 0,0
26.02.2020 19:00:00 5,0 0,0 4,5 7,9 8,8 18 10 32 18 W 1011,7 30 2 0,0
26.02.2020 18:00:00 5,7 0,2 5,4 7,8 8,8 26 14 59 32 WNW 1010,9 25 35 0,0
26.02.2020 17:00:00 7,7 -0,5 6,5 7,7 8,8 31 17 50 27 W 1010,0 25 60 0,0
26.02.2020 16:00:00 6,2 0,3 6,2 7,5 8,8 28 15 59 32 WNW 1009,4 25 36 0,0
26.02.2020 15:00:00 7,8 0,5 7,8 7,3 8,8 37 20 55 30 WNW 1008,8 25 42 0,0
26.02.2020 14:00:00 6,6 1,3 8,5 7,2 8,8 34 18 50 27 W 1008,5 25 48 0,0
26.02.2020 13:00:00 5,7 1,4 5,5 7,1 8,8 34 18 52 28 W 1008,5 20 42 0,0
26.02.2020 12:00:00 5,3 0,1 6,6 7,1 8,8 30 16 46 25 WNW 1008,1 20 29 0,0
26.02.2020 11:00:00 5,6 0,9 5,4 7,2 8,8 31 17 48 26 W 1007,4 20 57 0,0
26.02.2020 10:00:00 3,3 1,5 1,6 7,4 8,8 22 12 33 18 W 1006,4 20 32 0,0
26.02.2020 09:00:00 1,7 0,7 0,1 7,6 8,8 21 12 40 22 W 1005,4 15 0 0,2
26.02.2020 08:00:00 0,7 0,1 0,1 7,7 8,8 23 12 33 18 W 1003,9 8 0 3,0
26.02.2020 07:00:00 0,7 -0,5 0,1 7,9 8,8 29 16 46 25 W 1003,3 6 0 1,2
26.02.2020 06:00:00 2,5 0,1 0,9 8,0 8,8 25 14 38 20 WSW 1002,9 15 0 0,0
26.02.2020 05:00:00 1,4 0,1 0,4 8,1 8,8 22 12 48 26 W 1002,6 2,8 0 1,8
26.02.2020 04:00:00 3,9 -0,1 3,0 8,3 8,7 35 19 53 29 W 1002,2 25 0 0,0
26.02.2020 03:00:00 2,9 0,6 2,1 8,4 8,7 21 11 55 30 W 1002,5 47 0 0,0
26.02.2020 02:00:00 4,1 0,1 3,6 8,6 8,7 33 18 53 28 WSW 1002,5 35 0 0,0
26.02.2020 01:00:00 4,1 0,4 3,6 8,7 8,7 33 18 53 28 WSW 1002,4 35 0 0,0
26.02.2020 00:00:00 4,1 0,4 3,5 8,9 8,7 31 17 53 28 W 1002,5 45 0 0,0
25.02.2020 23:00:00 4,1 0,8 3,5 9,1 8,7 31 17 46 25 WSW 1002,3 35 0 0,0
25.02.2020 22:00:00 4,8 0,9 4,1 9,2 8,7 31 17 49 26 W 1001,9 49 0 0,0
25.02.2020 21:00:00 5,2 2,0 4,0 9,4 8,7 26 14 45 24 W 1002,0 56 0 0,6
25.02.2020 20:00:00 4,6 3,3 3,9 9,4 8,7 33 18 66 36 W 1003,4 3,8 0 4,1
25.02.2020 19:00:00 6,5 2,9 6,0 9,5 8,7 18 10 35 19 SW 1002,6 20 0 0,0
25.02.2020 18:00:00 6,9 2,6 6,5 9,5 8,7 26 14 42 23 WSW 1003,1 20 20 0,0
25.02.2020 17:00:00 7,4 4,2 6,1 9,4 8,7 27 15 49 27 WSW 1003,6 20 12 0,4
25.02.2020 16:00:00 7,0 4,1 6,2 9,3 8,7 40 22 55 30 WNW 1004,7 5 16 1,0
25.02.2020 15:00:00 8,5 6,1 4,8 9,2 8,6 23 12 53 29 WSW 1004,6 15 16 1,8
25.02.2020 14:00:00 7,9 5,2 7,2 9,1 8,7 18 10 39 21 W 1005,7 5 11 1,0
25.02.2020 13:00:00 7,5 4,6 7,1 9,0 8,6 24 13 49 27 WSW 1007,0 4,5 8 0,4
25.02.2020 12:00:00 10,4 2,5 10,3 9,0 8,7 33 18 49 27 WSW 1007,1 25 50 0,0
25.02.2020 11:00:00 9,4 3,1 10,4 9,1 8,6 32 18 48 26 W 1007,6 25 50 0,0
25.02.2020 10:00:00 8,4 4,0 7,7 9,1 8,6 26 14 37 20 W 1008,0 25 33 0,0
25.02.2020 09:00:00 7,6 4,5 7,2 9,1 8,6 26 14 40 22 W 1008,3 25 3 0,0
25.02.2020 08:00:00 7,9 4,7 7,2 9,2 8,6 20 11 34 18 W 1008,3 51 0 0,0
25.02.2020 07:00:00 7,9 5,5 7,1 9,2 8,6 16 8 33 18 W 1008,5 25 0 0,0
25.02.2020 06:00:00 7,9 6,7 7,4 9,3 8,6 21 11 37 20 WNW 1008,6 10 0 1,6
25.02.2020 05:00:00 9,4 8,5 8,9 9,3 8,6 18 10 31 17 WSW 1008,0 6 0 0,4
25.02.2020 04:00:00 9,4 8,3 8,9 9,3 8,6 24 13 35 19 SW 1008,4 14 0 0,8
25.02.2020 03:00:00 9,4 8,3 8,9 9,4 8,6 24 13 35 19 SW 1009,3 10 0 1,0
25.02.2020 02:00:00 9,5 8,3 8,9 9,4 8,6 26 14 41 22 SW 1010,1 15 0 0,2
25.02.2020 01:00:00 9,8 8,1 9,2 9,4 8,6 29 15 40 22 SW 1010,7 15 0 0,2
25.02.2020 00:00:00 10,3 7,9 9,5 9,5 8,6 29 16 44 24 SW 1011,5 20 0 0,0
24.02.2020 23:00:00 10,5 7,7 9,6 9,5 8,6 30 16 47 26 SW 1011,8 20 0 0,0
24.02.2020 22:00:00 11,0 7,1 10,6 9,5 8,6 25 14 53 28 WSW 1013,0 20 0 0,0
24.02.2020 21:00:00 11,6 6,7 11,3 9,5 8,5 32 17 51 28 WSW 1013,1 35 0 0,0
24.02.2020 20:00:00 12,0 6,3 11,7 9,5 8,5 32 17 58 31 WSW 1013,4 60 0 0,0
24.02.2020 19:00:00 12,3 6,3 11,8 9,5 8,5 29 15 48 26 SW 1013,7 35 0 0,0
24.02.2020 18:00:00 12,4 6,4 12,1 9,5 8,5 28 15 55 30 WSW 1013,9 60 0 0,0
24.02.2020 17:00:00 12,4 6,4 12,5 9,4 8,5 31 17 53 29 WSW 1014,4 35 0 0,0
24.02.2020 16:00:00 12,4 6,4 12,7 9,4 8,5 31 17 52 28 WSW 1014,9 35 1 0,0
24.02.2020 15:00:00 12,2 7,1 12,9 9,3 8,5 37 20 66 35 SW 1016,1 35 0 0,0
24.02.2020 14:00:00 12,2 7,9 12,7 9,2 8,5 46 25 66 36 SW 1016,9 35 1 0,0
24.02.2020 13:00:00 12,0 8,1 12,2 9,1 8,5 39 21 54 29 SSW 1017,9 35 2 0,0
24.02.2020 12:00:00 11,6 8,4 11,4 9,1 8,5 34 18 59 32 SSW 1019,1 35 0 0,0
24.02.2020 11:00:00 10,9 8,5 10,9 9,1 8,5 34 19 49 27 SW 1020,0 35 0 0,0
24.02.2020 10:00:00 10,8 8,9 10,8 9,1 8,5 22 12 40 22 SSW 1021,1 60 0 0,0
24.02.2020 09:00:00 10,8 9,2 10,8 9,1 8,5 27 14 39 21 SSW 1021,6 47 0 0,0
24.02.2020 08:00:00 10,9 9,8 10,8 9,1 8,5 21 11 34 18 SW 1021,9 20 0 0,0
24.02.2020 07:00:00 11,1 10,0 10,9 9,1 8,5 21 11 31 17 SW 1022,8 18 0 0,0
24.02.2020 06:00:00 11,1 10,0 10,7 9,1 8,5 20 11 28 15 SW 1023,3 20 0 0,0
24.02.2020 05:00:00 10,9 10,1 9,6 9,1 8,5 17 9 29 16 SW 1023,9 14 0 0,0
24.02.2020 04:00:00 9,5 9,0 9,1 9,1 8,5 9 5 14 8 SSW 1024,8 5 0 0,4
24.02.2020 03:00:00 9,3 8,7 9,1 9,1 8,5 5 3 7 4 E 1025,5 1,0 0 0,5
24.02.2020 02:00:00 9,4 8,8 9,4 9,1 8,5 5 3 8 4 NE 1026,3 1,8 0 0,4
24.02.2020 01:00:00 9,8 9,0 9,6 9,1 8,5 6 4 17 9 NNE 1026,5 3,8 0 0,4
24.02.2020 00:00:00 10,4 9,8 10,2 9,0 8,5 9 5 26 14 NW 1026,5 3,8 0 1,4
23.02.2020 23:00:00 11,7 11,1 11,4 9,0 8,5 11 6 26 14 W 1026,3 5 0 0,8
23.02.2020 22:00:00 11,7 11,1 11,4 9,0 8,5 14 7 29 16 WSW 1026,0 3,3 0 1,0
23.02.2020 21:00:00 11,7 11,1 11,4 8,9 8,4 21 12 34 18 WSW 1025,8 5 0 0,8
23.02.2020 20:00:00 11,8 11,0 11,4 8,9 8,5 26 14 40 22 WSW 1025,5 2,8 0 0,6
23.02.2020 19:00:00 11,9 11,0 11,5 8,8 8,5 24 13 46 25 WSW 1024,7 2,3 0 0,4
23.02.2020 18:00:00 12,4 10,6 11,6 8,7 8,5 24 13 49 27 WSW 1023,9 10 0 0,0
23.02.2020 17:00:00 13,3 9,7 13,1 8,7 8,5 33 18 52 28 WSW 1023,3 25 0 0,0
23.02.2020 16:00:00 13,4 9,6 13,3 8,5 8,5 34 18 60 32 WSW 1022,9 25 0 0,0
23.02.2020 15:00:00 12,9 9,2 12,9 8,4 8,5 36 20 56 31 WSW 1022,9 25 0 0,0
23.02.2020 14:00:00 12,6 9,1 12,8 8,4 8,5 39 21 60 33 WSW 1023,1 20 0 0,0
23.02.2020 13:00:00 12,5 8,8 12,4 8,3 8,5 37 20 63 34 WSW 1023,3 30 0 -
23.02.2020 12:00:00 12,3 8,4 12,4 8,2 8,5 34 18 57 31 SW 1023,6 25 0 0,0
23.02.2020 11:00:00 11,8 8,3 11,1 8,2 8,5 34 19 51 28 SW 1023,4 30 0 0,0
23.02.2020 10:00:00 10,8 8,0 10,4 8,2 8,5 36 19 53 28 SW 1023,6 30 0 0,0
23.02.2020 09:00:00 10,4 8,2 10,2 8,2 8,5 31 17 46 25 SSW 1024,2 30 0 0,0
23.02.2020 08:00:00 10,4 8,2 9,9 8,1 8,5 32 18 46 25 SSW 1024,1 30 0 0,0
23.02.2020 07:00:00 10,0 8,1 9,7 8,1 8,5 29 16 47 25 SSW 1024,5 30 0 0,0
23.02.2020 06:00:00 9,9 8,2 9,8 8,1 8,5 30 16 42 23 SW 1025,0 25 0 0,0
23.02.2020 05:00:00 10,1 8,0 10,0 8,1 8,5 27 14 43 23 SSW 1025,6 30 0 0,0
23.02.2020 04:00:00 10,3 7,9 10,1 8,1 8,5 29 15 38 20 SW 1026,0 30 0 0,0
23.02.2020 03:00:00 10,5 7,7 10,3 8,0 8,5 24 13 42 23 SW 1026,9 30 0 0,0
23.02.2020 02:00:00 10,7 7,6 10,5 8,0 8,5 26 14 38 20 SW 1027,6 30 0 0,0
23.02.2020 01:00:00 10,9 7,6 10,7 8,0 8,5 24 13 37 20 SW 1028,5 30 0 0,0
23.02.2020 00:00:00 11,2 7,7 10,9 8,0 8,5 24 13 41 22 SW 1028,3 30 0 0,0
22.02.2020 23:00:00 11,4 7,7 11,0 8,0 8,5 23 12 36 20 SW 1028,7 30 0 0,0
22.02.2020 22:00:00 11,7 7,6 11,3 7,9 8,5 24 13 40 22 WSW 1028,5 30 0 0,0
22.02.2020 21:00:00 12,0 7,7 11,5 7,8 8,5 23 12 44 24 WSW 1028,8 43 0 0,0
22.02.2020 20:00:00 12,3 7,6 11,9 7,8 8,5 26 14 36 19 WSW 1028,7 30 0 0,0
22.02.2020 19:00:00 12,3 7,6 11,9 7,7 8,5 23 12 42 23 WSW 1028,1 30 0 0,0
22.02.2020 18:00:00 12,3 7,4 12,0 7,5 8,5 24 13 44 24 SW 1027,4 42 0 0,0

tt = Température de l'air
td = dewpoint
tt 5cm = Température de l'air 5cm
tt -20cm = Température de l'air -20cm
tt -100cm = Température de l'air -100cm
ff = Vitesse du vent
fx = gusts
dd = Direction du vent
ppp = reduced air pressure
vv = visibility
sd = Ensoleillement
rr = Quantités de précipitations

stations d'obs. à proximité